Regional Weather Roundup
Issued by NWS

Home | Current Version | Previous Version | Text Only | Print | Product List | Glossary Off
Versions: 1 2 3 4 5 6 7 8 9 10 11 12 13 14 15 16 17 18 19 20 21 22 23 24 25 26 27 28 29 30 31 32 33 34 35 36 37 38 39 40 41 42 43 44 45 46 47 48 49 50

000
ASUS43 KDTX 252201
RWRMI
MICHIGAN HOURLY REGIONAL WEATHER ROUNDUP
NATIONAL WEATHER SERVICE DETROIT/PONTIAC MI
600 PM EDT THU AUG 25 2016

NOTE: "FAIR" INDICATES FEW OR NO CLOUDS BELOW 12,000 FEET WITH NO
SIGNIFICANT WEATHER AND/OR OBSTRUCTION TO VISIBILITY.

MIZ047>049-052>055-059>063-066>070-074>076-081>083-252300-
SOUTHEAST LOWER MICHIGAN

CITY           SKY/WX    TMP DP  RH WIND       PRES   REMARKS
ADRIAN         SUNNY     83  69  62 W14G21    30.00R
ALMA           SUNNY     82  68  62 W13G18    29.97S
ANN ARBOR      PTSUNNY   84  70  62 W8        29.97S
BAD AXE        SUNNY     80  65  59 W7        29.94F
CARO           SUNNY     81  70  71 NW3       29.94S
DETROIT CITY   PTSUNNY   83  69  62 NW10G21   29.95R
DETROIT        PTSUNNY   84  70  62 W12       29.96R
FLINT          MOSUNNY   80  72  76 W9        29.97S
GROSSE ILE     MOSUNNY   86  69  57 W14G22    29.94S HX  90
HILLSDALE      PTSUNNY   81  69  67 W8        30.02S
HOWELL         PTSUNNY   79  71  74 W9        29.98S

CITY           SKY/WX    TMP DP  RH WIND       PRES   REMARKS
JACKSON        CLOUDY    78  71  79 W9        30.00R
LAMBERTVILLE   SUNNY     86  69  56 W8G17     29.98S HX  90
LANSING        MOSUNNY   81  68  64 W13       29.99S
LAPEER         LGT RAIN  75  72  91 W5        29.97S
MASON          MOSUNNY   80  69  69 W9        29.99S
MONROE         MOSUNNY   86  71  60 W15G25    29.95F HX  90
MT. CLEMENS    MOSUNNY   82  71  68 NW9       29.93S
PONTIAC        MOSUNNY   81  68  64 W17       29.97S
PORT HURON     PTSUNNY   77  72  83 W8        29.94F
TRI CITIES     MOSUNNY   83  68  60 W12       29.95S
MIDLAND        FAIR      83  63  49 W8        29.94R
TROY           PTSUNNY   84  68  58 W9G24     29.98R
SAGINAW HB     SUNNY     82  66  57 W8        29.95R
$$
MIZ043>046-050>051-056>058-064>065-071>073-077>080-252300-
SOUTHWEST LOWER MICHIGAN

CITY           SKY/WX    TMP DP  RH WIND       PRES   REMARKS
BATTLE CREEK   MOSUNNY   78  69  73 W12       30.02S
BENTON HARBOR  SUNNY     77  67  71 W6        30.04R
BIG RAPIDS     SUNNY     80  56  43 W9        29.98S
COLDWATER      PTSUNNY   80  69  68 W10       30.01S
FREMONT        FAIR      77  56  47 W9        29.99F
HOLLAND        SUNNY     76  64  66 W9        30.03S
GRAND RAPIDS   MOSUNNY   80  58  46 W13       30.01R
IONIA          FAIR      80  60  50 W14       29.99R
KALAMAZOO      MOSUNNY   78  67  68 W10       30.02S
LUDINGTON      SUNNY     75  60  60 W6        29.99F
MARSHALL       MOSUNNY   82  70  65 W10       30.00S
MOUNT PLEASANT SUNNY     83  64  52 W10       29.96S
MUSKEGON       MOSUNNY   77  63  61 W10       30.01S
SOUTH HAVEN    SUNNY     78  66  65 W6        30.03S
$$
MIZ016>042-252300-
NORTHERN LOWER MICHIGAN

CITY           SKY/WX    TMP DP  RH WIND       PRES   REMARKS
ALPENA         SUNNY     84  57  39 W7        29.92S
BEAVER ISLAND  SUNNY     73  60  63 SW12G17   29.94F
BELLAIRE       SUNNY     76  57  52 W5        29.97R
CADILLAC       SUNNY     78  58  50 W9        30.00R
CHARLEVOIX     CLOUDY    73  58  58 SW8       29.99S
FRANKFORT      CLOUDY    74  61  64 SW8       29.98F
GAYLORD        SUNNY     75  56  51 W14G20    29.98R
GRAYLING       SUNNY     80  63  56 W9        29.97S
HARBOR SPRINGS SUNNY     73  61  67 W8        29.95S
HOUGHTON LAKE  SUNNY     80  61  52 W12       29.97S
MANISTEE       SUNNY     75  59  57 W14       29.99S
OSCODA         MOSUNNY   84  62  46 W13       29.90S
PELLSTON       SUNNY     73  57  57 W9        29.95R
ROGERS CITY    SUNNY     78  61  55 W7        29.93S
TRAVERSE CITY  PTSUNNY   78  52  40 W13       29.96R
$$
MIZ007>008-015-252300-
EASTERN UPPER MICHIGAN

CITY           SKY/WX    TMP DP  RH WIND       PRES   REMARKS
KINROSS        SUNNY     73  57  57 NW12      29.92S
MACKINAC ISLAN CLOUDY    72  62  72 SW13G21   29.93S
NEWBERRY       MOSUNNY   76  53  44 NW3       29.91F
S. S. MARIE    MOSUNNY   74  55  51 NW9       29.92R
MUNISING         N/A     73  60  63 NE9       29.91S
$$
MIZ004>006-011>014-085-252300-
CENTRAL UPPER MICHIGAN

CITY           SKY/WX    TMP DP  RH WIND       PRES   REMARKS
MANISTIQUE     SUNNY     73  62  70 S12       29.92S
ESCANABA       SUNNY     81  56  42 W8        29.91S
MENOMINEE      SUNNY    N/A N/A N/A W7        29.94F
SAWYER-GWINN   MOSUNNY   77  52  41 W20       29.93S
$$
MIZ001>003-009>011-084-252300-
WESTERN UPPER MICHIGAN

CITY           SKY/WX    TMP DP  RH WIND       PRES   REMARKS
IRON MOUNTAIN  MOSUNNY   79  55  43 SW12      29.93F
HOUGHTON       CLOUDY    72  52  49 W20G30    29.91R
COPPER HARBOR    N/A     74  52  46 NW14G23   29.88R
IRONWOOD       CLOUDY    69  56  62 W16       29.97R
$$

ABBREVIATIONS USED IN REMARKS
   TC - TEMPERATURE IN CELSIUS
  WCI - WIND CHILL INDEX
   HX - HEAT INDEX
  VSB - VISIBILITY





USA.gov is the U.S. government's official web portal to all federal, state and local government web resources and services.